Weather History for KCCU - June, 2013

Change the Weather History Date:

Sunday, June 30, 2013

  Actual Average (KLXV) Record (KLXV)
Temperature  
Mean Temperature 55 °F -  
Max Temperature 64 °F 69 °F 80 °F (1990)
Min Temperature 46 °F 36 °F 30 °F (1983)
Degree Days  
Heating Degree Days 10 13  
Month to date heating degree days 481  
Since 1 June heating degree days 480  
Since 1 July heating degree days 11234  
Cooling Degree Days 0 0  
Month to date cooling degree days 0  
Year to date cooling degree days 0  
Since 1 June cooling degree days 0  
Growing Degree Days 5 (Base 50)    
Moisture  
Dew Point 34 °F    
Average Humidity 44    
Maximum Humidity 71    
Minimum Humidity 30    
Precipitation  
Precipitation 0.04 in 0.04 in 0.32 in (2004)
Month to date precipitation 0.94  
Year to date precipitation 5.07  
Sea Level Pressure  
Sea Level Pressure 30.67 in    
Wind  
Wind Speed 14 mph (West)    
Max Wind Speed 33 mph    
Max Gust Speed 43 mph    
Visibility 10 miles    
Events Rain , Thunderstorm    
T = Trace of Precipitation, MM = Missing Value Source: NWS Daily Summary

Daily Weather History Graph

Daily Weather History Graph

Search for Another Location

Airport or City:

Trip Planner

Search our weather history database for the weather conditions in past years. The results will help you decide how hot, cold, wet, or windy it might be!

Date:

Astronomy

Jun. 30, 2013 Rise Set
Actual Time 5:40 AM MDT 8:35 PM MDT
Civil Twilight 5:08 AM MDT 9:08 PM MDT
Nautical Twilight 4:27 AM MDT 9:48 PM MDT
Astronomical Twilight 3:40 AM MDT 10:35 PM MDT
Moon 12:39 AM MDT (6/30) 1:54 PM MDT (6/30)
Length of Visible Light 15h 59m
Length of Day
14h 54m
Last Quarter, 45% of the Moon is Illuminated
Jun 30
Last Quarter
Jul 8
New
Jul 15
First Quarter
Jul 22
Full
Jul 29
Last Quarter

Hourly Weather History & Observations

Time (MDT) Temp. Windchill Dew Point Humidity Pressure Visibility Wind Dir Wind Speed Gust Speed Precip Events Conditions
12:12 AM 53.6 °F - 35.6 °F 51% 30.71 in 10.0 mi West 15.0 mph - N/A   Scattered Clouds
12:32 AM 53.6 °F - 35.6 °F 51% 30.71 in 10.0 mi West 18.4 mph - N/A   Scattered Clouds
12:52 AM 53.6 °F - 35.6 °F 51% 30.71 in 10.0 mi West 9.2 mph - N/A   Mostly Cloudy
1:12 AM 53.6 °F - 35.6 °F 51% 30.71 in 10.0 mi South 5.8 mph - N/A   Mostly Cloudy
1:32 AM 53.6 °F - 35.6 °F 51% 30.69 in 10.0 mi South 6.9 mph - N/A   Scattered Clouds
1:52 AM 53.6 °F - 35.6 °F 51% 30.69 in 10.0 mi South 8.1 mph - N/A   Clear
2:12 AM 53.6 °F - 33.8 °F 47% 30.69 in 10.0 mi SW 3.5 mph - N/A   Mostly Cloudy
2:32 AM 53.6 °F - 35.6 °F 51% 30.68 in 10.0 mi South 10.4 mph - N/A   Mostly Cloudy
2:52 AM 53.6 °F - 33.8 °F 47% 30.67 in 10.0 mi South 15.0 mph - N/A   Mostly Cloudy
3:12 AM 53.6 °F - 33.8 °F 47% 30.66 in 10.0 mi South 17.3 mph - N/A   Scattered Clouds
3:32 AM 53.6 °F - 32.0 °F 44% 30.66 in 10.0 mi South 19.6 mph - N/A   Clear
3:52 AM 53.6 °F - 32.0 °F 44% 30.66 in 10.0 mi South 18.4 mph - N/A   Scattered Clouds
4:12 AM 53.6 °F - 32.0 °F 44% 30.65 in 10.0 mi South 15.0 mph - N/A   Scattered Clouds
4:32 AM 53.6 °F - 32.0 °F 44% 30.65 in 10.0 mi South 13.8 mph - N/A   Clear
4:52 AM 53.6 °F - 32.0 °F 44% 30.65 in 10.0 mi South 16.1 mph 21.9 mph N/A   Clear
5:12 AM 53.6 °F - 32.0 °F 44% 30.65 in 10.0 mi South 17.3 mph 24.2 mph N/A   Clear
5:32 AM 53.6 °F - 32.0 °F 44% 30.66 in 10.0 mi SSW 11.5 mph 18.4 mph N/A   Clear
5:52 AM 53.6 °F - 32.0 °F 44% 30.67 in 10.0 mi SSW 8.1 mph - N/A   Clear
6:12 AM 53.6 °F - 32.0 °F 44% 30.67 in 10.0 mi SSW 6.9 mph - N/A   Clear
6:21 AM 53.6 °F - 32.0 °F 44% 30.67 in 10.0 mi South 8.1 mph - N/A   Clear
7:32 AM 53.6 °F - 33.8 °F 47% 30.67 in 10.0 mi West 11.5 mph - N/A   Clear
7:52 AM 53.6 °F - 35.6 °F 51% 30.67 in 10.0 mi West 13.8 mph - N/A   Clear
8:12 AM 53.6 °F - 35.6 °F 51% 30.68 in 10.0 mi West 10.4 mph - N/A   Clear
8:32 AM 55.4 °F - 35.6 °F 47% 30.68 in 10.0 mi West 16.1 mph 20.7 mph N/A   Clear
8:52 AM 55.4 °F - 37.4 °F 51% 30.68 in 10.0 mi West 11.5 mph 21.9 mph N/A   Clear
9:12 AM 59.0 °F - 37.4 °F 45% 30.68 in 10.0 mi West 15.0 mph 23.0 mph N/A   Clear
9:32 AM 59.0 °F - 35.6 °F 42% 30.68 in 10.0 mi WNW 23.0 mph 29.9 mph N/A   Clear
9:52 AM 59.0 °F - 35.6 °F 42% 30.68 in 10.0 mi WNW 21.9 mph 32.2 mph N/A   Clear
10:12 AM 59.0 °F - 35.6 °F 42% 30.67 in 10.0 mi WNW 25.3 mph 31.1 mph N/A   Clear
10:32 AM 60.8 °F - 33.8 °F 36% 30.68 in 10.0 mi West 21.9 mph 34.5 mph N/A   Clear
10:52 AM 60.8 °F - 32.0 °F 34% 30.67 in 10.0 mi WNW 33.4 mph 41.4 mph N/A   Clear
11:12 AM 60.8 °F - 32.0 °F 34% 30.68 in 10.0 mi West 27.6 mph 35.7 mph N/A   Scattered Clouds
11:32 AM 60.8 °F - 32.0 °F 34% 30.67 in 10.0 mi West 26.5 mph 32.2 mph N/A   Scattered Clouds
11:52 AM 62.6 °F - 30.2 °F 30% 30.67 in 10.0 mi West 25.3 mph 36.8 mph N/A   Scattered Clouds
12:12 PM 60.8 °F - 33.8 °F 36% 30.67 in 10.0 mi WNW 13.8 mph 19.6 mph N/A   Mostly Cloudy
12:32 PM 60.8 °F - 33.8 °F 36% 30.66 in 10.0 mi WNW 26.5 mph 35.7 mph N/A   Mostly Cloudy
12:52 PM 64.4 °F - 32.0 °F 30% 30.66 in 10.0 mi West 29.9 mph 35.7 mph N/A   Scattered Clouds
1:12 PM 60.8 °F - 30.2 °F 31% 30.66 in 10.0 mi West 21.9 mph 32.2 mph N/A   Mostly Cloudy
1:32 PM 60.8 °F - 33.8 °F 36% 30.65 in 10.0 mi WNW 20.7 mph 31.1 mph N/A   Overcast
1:52 PM 62.6 °F - 33.8 °F 34% 30.64 in 10.0 mi WNW 16.1 mph 36.8 mph N/A Thunderstorm Overcast
2:12 PM 60.8 °F - 35.6 °F 39% 30.64 in 10.0 mi West 24.2 mph 36.8 mph N/A Thunderstorm Mostly Cloudy
2:32 PM 60.8 °F - 33.8 °F 36% 30.64 in 10.0 mi WNW 20.7 mph 29.9 mph N/A Thunderstorm Thunderstorm
2:52 PM 60.8 °F - 32.0 °F 34% 30.64 in 10.0 mi WNW 31.1 mph 42.6 mph N/A Thunderstorm Thunderstorm
3:12 PM 55.4 °F - 35.6 °F 47% 30.65 in 10.0 mi WNW 15.0 mph 34.5 mph N/A Rain , Thunderstorm Light Thunderstorms and Rain
3:32 PM 51.8 °F - 35.6 °F 54% 30.67 in 10.0 mi West 5.8 mph 18.4 mph 0.03 in Rain Light Rain
3:52 PM 57.2 °F - 37.4 °F 48% 30.66 in 10.0 mi West 10.4 mph 17.3 mph 0.03 in   Mostly Cloudy
4:12 PM 59.0 °F - 35.6 °F 42% 30.65 in 10.0 mi WNW 13.8 mph 18.4 mph N/A   Scattered Clouds
4:32 PM 59.0 °F - 35.6 °F 42% 30.66 in 10.0 mi WNW 11.5 mph 21.9 mph N/A   Clear
4:52 PM 59.0 °F - 35.6 °F 42% 30.67 in 10.0 mi West 9.2 mph 26.5 mph N/A   Mostly Cloudy
5:12 PM 59.0 °F - 37.4 °F 45% 30.66 in 10.0 mi WNW 5.8 mph 19.6 mph N/A Thunderstorm Mostly Cloudy
5:32 PM 55.4 °F - 35.6 °F 47% 30.66 in 7.0 mi WNW 9.2 mph 18.4 mph N/A Rain Rain
5:52 PM 55.4 °F - 33.8 °F 44% 30.66 in 10.0 mi West 5.8 mph - N/A   Overcast
6:12 PM 55.4 °F - 28.4 °F 36% 30.65 in 10.0 mi West 6.9 mph - N/A   Overcast
6:32 PM 55.4 °F - 30.2 °F 38% 30.65 in 10.0 mi West 6.9 mph - N/A   Scattered Clouds
6:52 PM 60.8 °F - 30.2 °F 31% 30.64 in 10.0 mi West 9.2 mph - N/A   Clear
7:12 PM 59.0 °F - 28.4 °F 31% 30.64 in 10.0 mi WNW 12.7 mph 18.4 mph N/A   Clear
7:32 PM 59.0 °F - 32.0 °F 36% 30.65 in 10.0 mi WNW 11.5 mph 18.4 mph N/A   Clear
7:52 PM 55.4 °F - 33.8 °F 44% 30.66 in 10.0 mi West 8.1 mph 17.3 mph N/A   Clear
8:12 PM 55.4 °F - 35.6 °F 47% 30.67 in 10.0 mi West 3.5 mph - N/A   Scattered Clouds
8:32 PM 50.0 °F - 35.6 °F 58% 30.68 in 10.0 mi East 10.4 mph 39.1 mph N/A Rain , Thunderstorm Light Thunderstorms and Rain
8:52 PM 46.4 °F 44.3 °F 37.4 °F 71% 30.72 in 10.0 mi NW 4.6 mph 18.4 mph 0.01 in Rain Light Rain
9:12 PM 46.4 °F 41.1 °F 35.6 °F 66% 30.68 in 10.0 mi SSE 11.5 mph 19.6 mph N/A Thunderstorm Overcast
9:32 PM 50.0 °F - 35.6 °F 58% 30.69 in 10.0 mi WNW 4.6 mph - N/A Thunderstorm Thunderstorm
9:52 PM 50.0 °F - 33.8 °F 54% 30.70 in 10.0 mi West 5.8 mph - N/A   Clear
10:12 PM 51.8 °F - 35.6 °F 54% 30.70 in 10.0 mi WNW 4.6 mph - N/A   Clear
10:32 PM 51.8 °F - 33.8 °F 50% 30.71 in 10.0 mi NNW 5.8 mph - N/A   Clear
10:52 PM 51.8 °F - 33.8 °F 50% 30.71 in 10.0 mi NW 3.5 mph - N/A   Clear
11:12 PM 51.8 °F - 33.8 °F 50% 30.70 in 10.0 mi West 6.9 mph - N/A   Clear
11:32 PM 51.8 °F - 32.0 °F 47% 30.70 in 10.0 mi West 4.6 mph - N/A   Clear
11:52 PM 51.8 °F - 32.0 °F 47% 30.70 in 10.0 mi NW 4.6 mph - N/A   Clear